This is the latest recevied weather packets stored in our database for station/object HB9HFD-13. If no packets are shown the sender has not sent any weather packets the latest 10 day(s).
| Time | Temp. | Humidity | Pressure | Rain* | Wind** | Luminosity | Snow |
|---|---|---|---|---|---|---|---|
| 1787599580 | 23.33° C | 63% | 1008.8 hPa | 0 mm | - | - | - |
| 1787599280 | 23.33° C | 61% | 1008.8 hPa | 0 mm | - | - | - |
| 1787598979 | 23.33° C | 58% | 1008.7 hPa | 0 mm | - | - | - |
| 1787598679 | 23.33° C | 58% | 1008.4 hPa | 0 mm | - | - | - |
| 1787598379 | 23.33° C | 58% | 1008.4 hPa | 0 mm | - | - | - |
| 1787598079 | 23.33° C | 59% | 1008.4 hPa | 0 mm | - | - | - |
| 1787597778 | 23.33° C | 58% | 1008.1 hPa | 0 mm | - | - | - |
| 1787597478 | 23.33° C | 59% | 1008 hPa | 0 mm | - | - | - |
| 1787597178 | 23.33° C | 59% | 1007.6 hPa | 0 mm | - | - | - |
| 1787596878 | 23.89° C | 59% | 1007.8 hPa | 0 mm | - | - | - |
| 1787596577 | 23.89° C | 61% | 1007.7 hPa | 0 mm | - | - | - |
| 1787596277 | 23.89° C | 61% | 1007.5 hPa | 0 mm | - | - | - |
| 1787595977 | 23.89° C | 61% | 1007.2 hPa | 0 mm | - | - | - |
| 1787595676 | 23.89° C | 61% | 1007.2 hPa | 0 mm | - | - | - |
| 1787595376 | 24.44° C | 62% | 1007.2 hPa | 0 mm | - | - | - |
| 1787595076 | 24.44° C | 63% | 1007.3 hPa | 0 mm | - | - | - |
| 1787594776 | 24.44° C | 61% | 1007.4 hPa | 0 mm | - | - | - |
| 1787594475 | 24.44° C | 60% | 1007.4 hPa | 0 mm | - | - | - |
| 1787594175 | 25° C | 58% | 1007.4 hPa | 0 mm | - | - | - |
| 1787593875 | 25° C | 58% | 1007.4 hPa | 0 mm | - | - | - |
| 1787593575 | 25° C | 57% | 1007.7 hPa | 0 mm | - | - | - |
| 1787593274 | 25.56° C | 56% | 1007.9 hPa | 0 mm | - | - | - |
| 1787592974 | 25.56° C | 56% | 1007.8 hPa | 0 mm | - | - | - |
| 1787592674 | 25.56° C | 55% | 1007.9 hPa | 0 mm | - | - | - |
| 1787592373 | 26.11° C | 53% | 1008 hPa | 0 mm | - | - | - |
* Rain latest hour (hover to see other rain measurements)
** Current wind speed in m/s (hover to see current wind gust speed)